Time,TemperatureF,DewpointF,PressureIn,WindDirection,WindDirectionDegrees,WindSpeedMPH,WindSpeedGustMPH,Humidity,HourlyPrecipIn,Conditions,Clouds,dailyrainin,SoftwareType,DateUTC
2013-11-14 00:01:00,35.0,23.7,30.38,South,186,5.0,12.0,63,0.00,,---,0.19,VWS V14.00,2013-11-14 05:01:00,
2013-11-14 00:02:00,35.0,23.7,30.38,South,185,6.0,12.0,63,0.00,,---,0.19,VWS V14.00,2013-11-14 05:02:00,
2013-11-14 00:03:00,35.1,23.8,30.38,South,189,10.0,12.0,63,0.00,,---,0.19,VWS V14.00,2013-11-14 05:03:00,
2013-11-14 00:08:00,35.0,23.3,30.38,South,188,7.0,12.0,62,0.00,,---,0.19,VWS V14.00,2013-11-14 05:08:00,
2013-11-14 00:10:00,35.0,23.3,30.37,South,177,4.0,12.0,62,0.00,,---,0.00,VWS V14.00,2013-11-14 05:10:00,
2013-11-14 00:15:00,35.0,23.3,30.37,SSE,168,4.0,12.0,62,0.00,,---,0.00,VWS V14.00,2013-11-14 05:15:00,
2013-11-14 00:20:00,34.8,23.5,30.37,SW,231,2.0,12.0,63,0.00,,---,0.00,VWS V14.00,2013-11-14 05:20:00,
2013-11-14 00:25:00,34.6,23.3,30.38,South,182,6.0,12.0,63,0.00,,---,0.01,VWS V14.00,2013-11-14 05:25:00,
2013-11-14 00:30:00,34.4,22.7,30.37,SSW,194,2.0,12.0,62,0.00,,---,0.01,VWS V14.00,2013-11-14 05:30:00,
2013-11-14 00:35:00,34.4,23.1,30.37,South,190,4.0,12.0,63,0.00,,---,0.01,VWS V14.00,2013-11-14 05:35:00,
2013-11-14 00:40:00,34.4,22.7,30.37,SSW,195,4.0,8.0,62,0.00,,---,0.01,VWS V14.00,2013-11-14 05:40:00,
2013-11-14 00:45:00,34.4,22.7,30.37,South,186,3.0,12.0,62,0.00,,---,0.01,VWS V14.00,2013-11-14 05:45:00,
2013-11-14 00:50:00,34.4,23.1,30.36,SSW,199,9.0,12.0,63,0.00,,---,0.01,VWS V14.00,2013-11-14 05:50:00,
2013-11-14 00:55:00,34.6,23.3,30.36,South,184,11.0,12.0,63,0.00,,---,0.01,VWS V14.00,2013-11-14 05:55:00,
2013-11-14 01:00:00,34.4,23.1,30.36,South,186,3.0,12.0,63,0.00,,---,0.01,VWS V14.00,2013-11-14 06:00:00,
2013-11-14 01:05:00,34.4,23.5,30.36,SSW,210,4.0,12.0,64,0.00,,---,0.01,VWS V14.00,2013-11-14 06:05:00,
2013-11-14 01:10:00,34.1,23.2,30.35,SSE,153,4.0,6.0,64,0.00,,---,0.01,VWS V14.00,2013-11-14 06:10:00,
2013-11-14 01:15:00,34.3,23.4,30.36,South,175,10.0,11.0,64,0.00,,---,0.01,VWS V14.00,2013-11-14 06:15:00,
2013-11-14 01:21:00,34.4,22.7,30.36,SSW,192,3.0,12.0,62,0.00,,---,0.01,VWS V14.00,2013-11-14 06:21:00,
2013-11-14 01:26:00,34.3,23.4,30.35,SSE,165,4.0,12.0,64,0.00,,---,0.01,VWS V14.00,2013-11-14 06:26:00,
2013-11-14 01:31:00,34.4,23.1,30.35,South,179,4.0,12.0,63,0.00,,---,0.01,VWS V14.00,2013-11-14 06:31:00,
2013-11-14 01:36:00,34.4,23.1,30.35,SSE,159,0.0,12.0,63,0.00,,---,0.01,VWS V14.00,2013-11-14 06:36:00,
2013-11-14 01:41:00,34.1,23.6,30.34,South,174,4.0,5.0,65,0.00,,---,0.01,VWS V14.00,2013-11-14 06:41:00,
2013-11-14 01:46:00,34.2,23.7,30.34,South,184,4.0,6.0,65,0.00,,---,0.01,VWS V14.00,2013-11-14 06:46:00,
2013-11-14 01:51:00,34.1,23.2,30.34,South,184,2.0,7.0,64,0.00,,---,0.01,VWS V14.00,2013-11-14 06:51:00,
2013-11-14 01:56:00,34.0,23.1,30.34,SSW,192,1.0,9.0,64,0.00,,---,0.01,VWS V14.00,2013-11-14 06:56:00,
2013-11-14 02:01:00,34.2,23.3,30.34,South,189,2.0,9.0,64,0.00,,---,0.01,VWS V14.00,2013-11-14 07:01:00,
2013-11-14 02:06:00,34.1,22.8,30.34,South,189,0.0,9.0,63,0.00,,---,0.01,VWS V14.00,2013-11-14 07:06:00,
2013-11-14 02:11:00,33.8,22.2,30.34,South,189,0.0,3.0,62,0.00,,---,0.01,VWS V14.00,2013-11-14 07:11:00,
2013-11-14 02:17:00,33.8,22.5,30.34,South,190,2.0,5.0,63,0.00,,---,0.01,VWS V14.00,2013-11-14 07:17:00,
2013-11-14 02:22:00,33.7,22.5,30.34,South,190,2.0,5.0,63,0.00,,---,0.01,VWS V14.00,2013-11-14 07:22:00,
2013-11-14 02:27:00,33.6,22.4,30.34,South,190,3.0,5.0,63,0.00,,---,0.01,VWS V14.00,2013-11-14 07:27:00,
2013-11-14 02:32:00,33.5,22.3,30.34,South,190,0.0,5.0,63,0.00,,---,0.02,VWS V14.00,2013-11-14 07:32:00,
2013-11-14 02:37:00,33.3,22.1,30.35,South,190,2.0,5.0,63,0.00,,---,0.02,VWS V14.00,2013-11-14 07:37:00,
2013-11-14 02:42:00,33.0,21.8,30.35,South,190,0.0,3.0,63,0.00,,---,0.02,VWS V14.00,2013-11-14 07:42:00,
2013-11-14 02:47:00,32.9,21.7,30.35,South,190,0.0,3.0,63,0.00,,---,0.02,VWS V14.00,2013-11-14 07:47:00,
2013-11-14 02:52:00,32.9,21.7,30.35,South,190,2.0,3.0,63,0.00,,---,0.02,VWS V14.00,2013-11-14 07:52:00,
2013-11-14 02:57:00,32.9,21.7,30.34,South,190,2.0,4.0,63,0.00,,---,0.02,VWS V14.00,2013-11-14 07:57:00,
2013-11-14 03:02:00,33.0,21.8,30.34,South,190,0.0,4.0,63,0.00,,---,0.02,VWS V14.00,2013-11-14 08:02:00,
2013-11-14 03:07:00,33.0,22.2,30.34,South,190,2.0,4.0,64,0.00,,---,0.02,VWS V14.00,2013-11-14 08:07:00,
2013-11-14 03:12:00,33.1,22.3,30.34,South,191,0.0,5.0,64,0.00,,---,0.02,VWS V14.00,2013-11-14 08:12:00,
2013-11-14 03:17:00,33.2,22.4,30.34,South,191,0.0,5.0,64,0.00,,---,0.02,VWS V14.00,2013-11-14 08:17:00,
2013-11-14 03:22:00,33.2,22.4,30.34,South,191,2.0,6.0,64,0.00,,---,0.02,VWS V14.00,2013-11-14 08:22:00,
2013-11-14 03:27:00,33.4,22.5,30.34,South,189,3.0,6.0,64,0.00,,---,0.02,VWS V14.00,2013-11-14 08:27:00,
2013-11-14 03:32:00,33.5,22.3,30.34,SW,214,2.0,6.0,63,0.00,,---,0.02,VWS V14.00,2013-11-14 08:32:00,
2013-11-14 03:37:00,33.5,22.3,30.34,SW,214,0.0,6.0,63,0.00,,---,0.02,VWS V14.00,2013-11-14 08:37:00,
2013-11-14 03:42:00,33.4,22.2,30.34,SSW,213,1.0,2.0,63,0.00,,---,0.02,VWS V14.00,2013-11-14 08:42:00,
2013-11-14 03:47:00,33.4,22.2,30.34,SSW,213,0.0,4.0,63,0.00,,---,0.02,VWS V14.00,2013-11-14 08:47:00,
2013-11-14 03:52:00,33.2,22.4,30.33,SSW,213,0.0,4.0,64,0.00,,---,0.02,VWS V14.00,2013-11-14 08:52:00,
2013-11-14 03:58:00,33.3,22.5,30.33,SSE,163,0.0,5.0,64,0.00,,---,0.02,VWS V14.00,2013-11-14 08:58:00,
2013-11-14 04:03:00,33.1,22.3,30.33,SSE,163,0.0,5.0,64,0.00,,---,0.02,VWS V14.00,2013-11-14 09:03:00,
2013-11-14 04:08:00,33.0,22.2,30.33,SSE,166,4.0,5.0,64,0.00,,---,0.02,VWS V14.00,2013-11-14 09:08:00,
2013-11-14 04:13:00,33.0,22.2,30.33,SSE,167,1.0,4.0,64,0.00,,---,0.02,VWS V14.00,2013-11-14 09:13:00,
2013-11-14 04:18:00,33.1,22.3,30.33,South,189,3.0,7.0,64,0.00,,---,0.02,VWS V14.00,2013-11-14 09:18:00,
2013-11-14 04:23:00,33.2,22.4,30.33,SSW,200,2.0,7.0,64,0.00,,---,0.02,VWS V14.00,2013-11-14 09:23:00,
2013-11-14 04:28:00,32.9,22.1,30.33,SE,129,0.0,7.0,64,0.00,,---,0.02,VWS V14.00,2013-11-14 09:28:00,
2013-11-14 04:33:00,32.9,22.1,30.33,South,188,1.0,7.0,64,0.00,,---,0.02,VWS V14.00,2013-11-14 09:33:00,
2013-11-14 04:38:00,32.7,21.9,30.33,South,188,2.0,7.0,64,0.00,,---,0.02,VWS V14.00,2013-11-14 09:38:00,
2013-11-14 04:43:00,32.7,22.2,30.33,South,187,0.0,3.0,65,0.00,,---,0.02,VWS V14.00,2013-11-14 09:43:00,
2013-11-14 04:48:00,32.8,22.7,30.33,South,186,0.0,4.0,66,0.00,,---,0.02,VWS V14.00,2013-11-14 09:48:00,
2013-11-14 04:53:00,32.9,22.4,30.33,South,186,2.0,5.0,65,0.00,,---,0.02,VWS V14.00,2013-11-14 09:53:00,
2013-11-14 04:58:00,32.9,22.8,30.33,South,186,1.0,5.0,66,0.00,,---,0.02,VWS V14.00,2013-11-14 09:58:00,
2013-11-14 05:03:00,33.0,22.9,30.33,South,185,0.0,5.0,66,0.00,,---,0.02,VWS V14.00,2013-11-14 10:03:00,
2013-11-14 05:08:00,33.0,22.5,30.33,South,184,0.0,0.0,65,0.00,,---,0.02,VWS V14.00,2013-11-14 10:08:00,
2013-11-14 05:13:00,32.9,22.4,30.33,South,185,3.0,3.0,65,0.00,,---,0.02,VWS V14.00,2013-11-14 10:13:00,
2013-11-14 05:18:00,33.0,22.5,30.33,South,184,0.0,3.0,65,0.00,,---,0.02,VWS V14.00,2013-11-14 10:18:00,
2013-11-14 05:23:00,32.9,22.1,30.33,South,185,0.0,3.0,64,0.00,,---,0.02,VWS V14.00,2013-11-14 10:23:00,
2013-11-14 05:28:00,32.8,22.3,30.33,South,184,0.0,3.0,65,0.00,,---,0.02,VWS V14.00,2013-11-14 10:28:00,
2013-11-14 05:34:00,32.8,22.3,30.33,South,184,2.0,3.0,65,0.00,,---,0.02,VWS V14.00,2013-11-14 10:34:00,
2013-11-14 05:39:00,32.7,22.2,30.33,South,185,0.0,0.0,65,0.00,,---,0.02,VWS V14.00,2013-11-14 10:39:00,
2013-11-14 05:44:00,32.6,22.1,30.33,South,185,1.0,4.0,65,0.00,,---,0.02,VWS V14.00,2013-11-14 10:44:00,
2013-11-14 05:49:00,32.5,22.1,30.32,South,185,0.0,4.0,65,0.00,,---,0.02,VWS V14.00,2013-11-14 10:49:00,
2013-11-14 05:54:00,32.4,22.0,30.32,South,185,1.0,4.0,65,0.00,,---,0.02,VWS V14.00,2013-11-14 10:54:00,
2013-11-14 05:59:00,32.5,22.1,30.32,South,185,1.0,4.0,65,0.00,,---,0.02,VWS V14.00,2013-11-14 10:59:00,
2013-11-14 06:04:00,32.6,22.1,30.32,South,185,2.0,5.0,65,0.00,,---,0.02,VWS V14.00,2013-11-14 11:04:00,
2013-11-14 06:09:00,32.7,22.2,30.33,South,185,0.0,2.0,65,0.00,,---,0.02,VWS V14.00,2013-11-14 11:09:00,
2013-11-14 06:14:00,32.7,22.2,30.33,South,185,1.0,3.0,65,0.00,,---,0.02,VWS V14.00,2013-11-14 11:14:00,
2013-11-14 06:19:00,32.8,22.3,30.33,South,185,0.0,4.0,65,0.00,,---,0.02,VWS V14.00,2013-11-14 11:19:00,
2013-11-14 06:24:00,32.7,22.2,30.33,South,184,3.0,4.0,65,0.00,,---,0.02,VWS V14.00,2013-11-14 11:24:00,
2013-11-14 06:29:00,32.6,22.1,30.33,South,185,2.0,4.0,65,0.00,,---,0.02,VWS V14.00,2013-11-14 11:29:00,
2013-11-14 06:34:00,32.7,22.6,30.32,SSW,210,0.0,5.0,66,0.00,,---,0.02,VWS V14.00,2013-11-14 11:34:00,
2013-11-14 06:39:00,32.6,22.1,30.32,SSW,209,2.0,3.0,65,0.00,,---,0.02,VWS V14.00,2013-11-14 11:39:00,
2013-11-14 06:44:00,32.7,22.6,30.32,SSW,209,0.0,3.0,66,0.00,,---,0.02,VWS V14.00,2013-11-14 11:44:00,
2013-11-14 06:49:00,32.7,22.2,30.32,SSW,209,0.0,4.0,65,0.00,,---,0.02,VWS V14.00,2013-11-14 11:49:00,
2013-11-14 06:54:00,32.6,22.5,30.32,SSW,209,0.0,4.0,66,0.00,,---,0.02,VWS V14.00,2013-11-14 11:54:00,
2013-11-14 06:59:00,32.6,22.5,30.32,South,175,2.0,6.0,66,0.00,,---,0.02,VWS V14.00,2013-11-14 11:59:00,
2013-11-14 07:05:00,32.8,22.7,30.32,South,175,0.0,6.0,66,0.00,,---,0.02,VWS V14.00,2013-11-14 12:05:00,
2013-11-14 07:10:00,32.8,22.7,30.32,South,175,3.0,3.0,66,0.00,,---,0.02,VWS V14.00,2013-11-14 12:10:00,
2013-11-14 07:15:00,32.8,22.7,30.33,SSW,196,2.0,6.0,66,0.00,,---,0.02,VWS V14.00,2013-11-14 12:15:00,
2013-11-14 07:20:00,33.1,23.0,30.33,South,191,0.0,6.0,66,0.00,,---,0.02,VWS V14.00,2013-11-14 12:20:00,
2013-11-14 07:25:00,33.1,22.6,30.32,South,184,1.0,7.0,65,0.00,,---,0.02,VWS V14.00,2013-11-14 12:25:00,
2013-11-14 07:30:00,32.9,22.4,30.32,South,183,2.0,7.0,65,0.00,,---,0.02,VWS V14.00,2013-11-14 12:30:00,
2013-11-14 07:35:00,32.9,22.4,30.32,SSE,167,0.0,7.0,65,0.00,,---,0.02,VWS V14.00,2013-11-14 12:35:00,
2013-11-14 07:40:00,32.7,22.2,30.32,SSE,167,2.0,2.0,65,0.00,,---,0.02,VWS V14.00,2013-11-14 12:40:00,
2013-11-14 07:45:00,32.9,22.8,30.32,SSW,199,0.0,4.0,66,0.00,,---,0.02,VWS V14.00,2013-11-14 12:45:00,
2013-11-14 07:50:00,33.0,22.9,30.32,SSW,199,0.0,4.0,66,0.00,,---,0.02,VWS V14.00,2013-11-14 12:50:00,
2013-11-14 07:55:00,33.4,23.3,30.32,SW,222,0.0,5.0,66,0.00,,---,0.02,VWS V14.00,2013-11-14 12:55:00,
2013-11-14 08:00:00,33.8,23.7,30.31,SSE,159,0.0,5.0,66,0.00,,---,0.02,VWS V14.00,2013-11-14 13:00:00,
2013-11-14 08:05:00,34.1,24.0,30.31,SSW,195,0.0,5.0,66,0.00,,---,0.02,VWS V14.00,2013-11-14 13:05:00,
2013-11-14 08:10:00,34.4,23.9,30.31,SE,134,6.0,6.0,65,0.00,,---,0.02,VWS V14.00,2013-11-14 13:10:00,
2013-11-14 08:15:00,34.8,24.2,30.31,SSE,161,5.0,7.0,65,0.00,,---,0.02,VWS V14.00,2013-11-14 13:15:00,
2013-11-14 08:20:00,35.2,24.3,30.31,SSW,211,4.0,7.0,64,0.00,,---,0.02,VWS V14.00,2013-11-14 13:20:00,
2013-11-14 08:25:00,35.5,24.2,30.30,South,188,5.0,7.0,63,0.00,,---,0.02,VWS V14.00,2013-11-14 13:25:00,
2013-11-14 08:30:00,36.0,24.6,30.30,South,169,8.0,9.0,63,0.00,,---,0.02,VWS V14.00,2013-11-14 13:30:00,
2013-11-14 08:35:00,36.2,24.1,30.30,SSE,165,5.0,9.0,61,0.00,,---,0.02,VWS V14.00,2013-11-14 13:35:00,
2013-11-14 08:40:00,36.4,24.6,30.30,SSE,150,5.0,11.0,62,0.00,,---,0.02,VWS V14.00,2013-11-14 13:40:00,
2013-11-14 08:46:00,36.5,25.1,30.30,SSE,166,6.0,11.0,63,0.00,,---,0.02,VWS V14.00,2013-11-14 13:46:00,
2013-11-14 08:51:00,36.5,24.0,30.30,SSE,152,9.0,15.0,60,0.00,,---,0.02,VWS V14.00,2013-11-14 13:51:00,
2013-11-14 08:56:00,36.8,25.0,30.30,SSE,161,6.0,15.0,62,0.00,,---,0.02,VWS V14.00,2013-11-14 13:56:00,
2013-11-14 09:01:00,37.0,24.8,30.30,SSE,150,10.0,15.0,61,0.00,,---,0.02,VWS V14.00,2013-11-14 14:01:00,
2013-11-14 09:06:00,37.0,24.8,30.30,South,174,7.0,15.0,61,0.00,,---,0.03,VWS V14.00,2013-11-14 14:06:00,
2013-11-14 09:11:00,37.2,24.2,30.29,SSE,160,7.0,14.0,59,0.00,,---,0.03,VWS V14.00,2013-11-14 14:11:00,
2013-11-14 09:16:00,37.5,24.9,30.29,SSE,161,6.0,14.0,60,0.00,,---,0.03,VWS V14.00,2013-11-14 14:16:00,
2013-11-14 09:21:00,37.7,25.1,30.29,SSE,164,6.0,14.0,60,0.00,,---,0.03,VWS V14.00,2013-11-14 14:21:00,
2013-11-14 09:26:00,38.0,25.0,30.29,SSE,167,9.0,14.0,59,0.00,,---,0.03,VWS V14.00,2013-11-14 14:26:00,
2013-11-14 09:31:00,38.4,25.7,30.29,SSE,167,10.0,14.0,60,0.00,,---,0.04,VWS V14.00,2013-11-14 14:31:00,
2013-11-14 09:36:00,38.6,25.1,30.28,SSE,161,9.0,14.0,58,0.00,,---,0.04,VWS V14.00,2013-11-14 14:36:00,
2013-11-14 09:41:00,38.9,25.4,30.28,South,182,7.0,14.0,58,0.00,,---,0.04,VWS V14.00,2013-11-14 14:41:00,
2013-11-14 09:46:00,39.1,25.6,30.28,South,176,10.0,14.0,58,0.00,,---,0.04,VWS V14.00,2013-11-14 14:46:00,
2013-11-14 09:51:00,39.6,25.6,30.27,SSE,153,7.0,14.0,57,0.00,,---,0.04,VWS V14.00,2013-11-14 14:51:00,
2013-11-14 09:52:00,39.7,25.7,30.27,SSW,192,7.0,21.0,57,0.00,,---,0.04,VWS V14.00,2013-11-14 14:52:00,
2013-11-14 09:57:00,40.2,25.8,30.27,SSE,164,6.0,21.0,56,0.00,,---,0.05,VWS V14.00,2013-11-14 14:57:00,
2013-11-14 10:02:00,40.5,25.6,30.27,South,180,7.0,21.0,55,0.00,,---,0.05,VWS V14.00,2013-11-14 15:02:00,
2013-11-14 10:07:00,41.0,26.1,30.26,South,181,11.0,21.0,55,0.00,,---,0.05,VWS V14.00,2013-11-14 15:07:00,
2013-11-14 10:12:00,41.4,25.6,30.26,SSE,167,11.0,15.0,53,0.00,,---,0.05,VWS V14.00,2013-11-14 15:12:00,
2013-11-14 10:17:00,41.8,25.9,30.26,SSE,163,5.0,18.0,53,0.00,,---,0.06,VWS V14.00,2013-11-14 15:17:00,
2013-11-14 10:22:00,42.3,25.5,30.26,SE,141,10.0,18.0,51,0.00,,---,0.06,VWS V14.00,2013-11-14 15:22:00,
2013-11-14 10:28:00,42.5,25.2,30.25,SSE,167,5.0,18.0,50,0.00,,---,0.06,VWS V14.00,2013-11-14 15:28:00,
2013-11-14 10:33:00,42.8,25.9,30.25,South,184,10.0,18.0,51,0.00,,---,0.06,VWS V14.00,2013-11-14 15:33:00,
2013-11-14 10:38:00,43.2,25.8,30.25,SSE,165,11.0,19.0,50,0.00,,---,0.07,VWS V14.00,2013-11-14 15:38:00,
2013-11-14 10:43:00,43.6,26.2,30.25,SSW,205,3.0,17.0,50,0.00,,---,0.07,VWS V14.00,2013-11-14 15:43:00,
2013-11-14 10:48:00,43.9,25.5,30.24,SSE,156,6.0,17.0,48,0.05,,---,0.08,VWS V14.00,2013-11-14 15:48:00,
2013-11-14 10:53:00,44.1,25.2,30.25,South,186,15.0,18.0,47,0.05,,---,0.08,VWS V14.00,2013-11-14 15:53:00,
2013-11-14 10:58:00,44.5,25.5,30.24,SSW,195,0.0,18.0,47,0.05,,---,0.08,VWS V14.00,2013-11-14 15:58:00,
2013-11-14 11:03:00,44.9,25.4,30.24,SSE,155,10.0,18.0,46,0.05,,---,0.09,VWS V14.00,2013-11-14 16:03:00,
2013-11-14 11:08:00,45.1,27.1,30.23,SSW,199,7.0,18.0,49,0.05,,---,0.09,VWS V14.00,2013-11-14 16:08:00,
2013-11-14 11:13:00,45.5,26.5,30.24,South,180,17.0,18.0,47,0.05,,---,0.10,VWS V14.00,2013-11-14 16:13:00,
2013-11-14 11:18:00,45.7,24.5,30.23,SE,142,6.0,19.0,43,0.05,,---,0.10,VWS V14.00,2013-11-14 16:18:00,
2013-11-14 11:23:00,46.1,25.4,30.23,South,180,10.0,19.0,44,0.05,,---,0.11,VWS V14.00,2013-11-14 16:23:00,
2013-11-14 11:28:00,46.4,25.1,30.23,SSE,149,11.0,19.0,43,0.05,,---,0.11,VWS V14.00,2013-11-14 16:28:00,
2013-11-14 11:33:00,46.5,24.7,30.22,SSE,161,11.0,19.0,42,0.05,,---,0.12,VWS V14.00,2013-11-14 16:33:00,
2013-11-14 11:38:00,46.9,25.0,30.22,SSW,202,6.0,9.0,42,0.05,,---,0.12,VWS V14.00,2013-11-14 16:38:00,
2013-11-14 11:43:00,47.0,24.5,30.21,SSE,163,10.0,18.0,41,0.05,,---,0.12,VWS V14.00,2013-11-14 16:43:00,
2013-11-14 11:48:00,47.3,23.6,30.21,SSE,168,12.0,20.0,39,0.04,,---,0.13,VWS V14.00,2013-11-14 16:48:00,
2013-11-14 11:53:00,47.4,24.3,30.20,South,179,14.0,20.0,40,0.04,,---,0.13,VWS V14.00,2013-11-14 16:53:00,
2013-11-14 11:59:00,47.7,24.0,30.19,SE,138,18.0,22.0,39,0.04,,---,0.13,VWS V14.00,2013-11-14 16:59:00,
2013-11-14 12:04:00,47.9,25.4,30.19,SSE,165,13.0,22.0,41,0.05,,---,0.14,VWS V14.00,2013-11-14 17:04:00,
2013-11-14 12:09:00,48.1,24.9,30.19,SSE,157,14.0,14.0,40,0.05,,---,0.14,VWS V14.00,2013-11-14 17:09:00,
2013-11-14 12:14:00,48.2,24.4,30.19,South,178,21.0,22.0,39,0.04,,---,0.15,VWS V14.00,2013-11-14 17:14:00,
2013-11-14 12:19:00,48.2,23.8,30.19,SSW,202,12.0,22.0,38,0.04,,---,0.15,VWS V14.00,2013-11-14 17:19:00,
2013-11-14 12:24:00,48.5,23.4,30.19,South,178,10.0,22.0,37,0.04,,---,0.15,VWS V14.00,2013-11-14 17:24:00,
2013-11-14 12:29:00,48.6,24.8,30.18,SSE,161,15.0,22.0,39,0.05,,---,0.16,VWS V14.00,2013-11-14 17:29:00,
2013-11-14 12:34:00,48.8,23.7,30.18,South,171,9.0,22.0,37,0.05,,---,0.16,VWS V14.00,2013-11-14 17:34:00,
2013-11-14 12:39:00,48.9,24.4,30.18,SSW,200,10.0,19.0,38,0.04,,---,0.16,VWS V14.00,2013-11-14 17:39:00,
2013-11-14 12:44:00,49.0,25.8,30.15,South,173,11.0,19.0,40,0.04,,---,0.17,VWS V14.00,2013-11-14 17:44:00,
2013-11-14 12:49:00,49.2,24.1,30.16,South,177,11.0,22.0,37,0.04,,---,0.17,VWS V14.00,2013-11-14 17:49:00,
2013-11-14 12:54:00,49.4,25.5,30.16,SSE,159,11.0,23.0,39,0.05,,---,0.18,VWS V14.00,2013-11-14 17:54:00,
2013-11-14 12:59:00,49.2,24.7,30.16,SSW,198,9.0,23.0,38,0.05,,---,0.18,VWS V14.00,2013-11-14 17:59:00,
2013-11-14 13:04:00,49.4,24.9,30.15,SSE,160,14.0,23.0,38,0.05,,---,0.18,VWS V14.00,2013-11-14 18:04:00,
2013-11-14 13:09:00,49.6,24.4,30.15,SSE,148,16.0,17.0,37,0.04,,---,0.18,VWS V14.00,2013-11-14 18:09:00,
2013-11-14 13:14:00,49.9,24.7,29.86,SSE,164,14.0,19.0,37,0.04,,---,0.19,VWS V14.00,2013-11-14 18:14:00,
2013-11-14 13:19:00,50.2,24.3,29.36,South,182,12.0,22.0,36,0.04,,---,0.19,VWS V14.00,2013-11-14 18:19:00,
2013-11-14 13:24:00,50.4,24.5,30.14,South,188,9.0,22.0,36,0.05,,---,0.20,VWS V14.00,2013-11-14 18:24:00,
2013-11-14 13:30:00,50.6,24.0,30.14,SSE,164,10.0,22.0,35,0.05,,---,0.20,VWS V14.00,2013-11-14 18:30:00,
2013-11-14 13:35:00,50.6,24.6,30.14,SSE,167,15.0,22.0,36,0.05,,---,0.20,VWS V14.00,2013-11-14 18:35:00,
2013-11-14 13:40:00,50.9,24.2,28.62,South,176,11.0,16.0,35,0.04,,---,0.20,VWS V14.00,2013-11-14 18:40:00,
2013-11-14 13:45:00,51.2,23.8,28.62,SSE,158,4.0,23.0,34,0.00,,---,0.21,VWS V14.00,2013-11-14 18:45:00,
2013-11-14 13:50:00,51.4,24.7,28.62,SSW,194,12.0,25.0,35,0.00,,---,0.21,VWS V14.00,2013-11-14 18:50:00,
2013-11-14 13:55:00,51.7,23.5,28.62,South,180,11.0,25.0,33,0.04,,---,0.22,VWS V14.00,2013-11-14 18:55:00,
2013-11-14 14:00:00,51.9,23.7,28.62,SSW,199,12.0,25.0,33,0.04,,---,0.22,VWS V14.00,2013-11-14 19:00:00,
2013-11-14 14:05:00,52.0,25.2,28.62,SSW,194,12.0,25.0,35,0.04,,---,0.22,VWS V14.00,2013-11-14 19:05:00,
2013-11-14 14:10:00,52.2,24.0,28.62,South,170,11.0,17.0,33,0.04,,---,0.22,VWS V14.00,2013-11-14 19:10:00,
2013-11-14 14:15:00,52.2,24.7,28.62,SSE,166,11.0,20.0,34,0.00,,---,0.23,VWS V14.00,2013-11-14 19:15:00,
2013-11-14 14:20:00,52.4,24.2,28.22,South,191,11.0,24.0,33,0.00,,---,0.23,VWS V14.00,2013-11-14 19:20:00,
2013-11-14 14:25:00,52.6,25.0,28.22,SSE,161,12.0,24.0,34,0.00,,---,0.23,VWS V14.00,2013-11-14 19:25:00,
2013-11-14 14:30:00,52.7,22.9,28.62,South,182,16.0,24.0,31,0.04,,---,0.24,VWS V14.00,2013-11-14 19:30:00,
2013-11-14 14:35:00,52.8,23.8,28.62,South,171,12.0,24.0,32,0.04,,---,0.24,VWS V14.00,2013-11-14 19:35:00,
2013-11-14 14:40:00,52.9,24.6,28.62,SSE,164,11.0,15.0,33,0.04,,---,0.24,VWS V14.00,2013-11-14 19:40:00,
2013-11-14 14:45:00,52.7,26.5,28.62,SSE,168,10.0,15.0,36,0.04,,---,0.24,VWS V14.00,2013-11-14 19:45:00,
2013-11-14 14:50:00,52.8,25.9,28.62,SSE,167,13.0,18.0,35,0.00,,---,0.25,VWS V14.00,2013-11-14 19:50:00,
2013-11-14 14:55:00,52.9,27.4,28.62,South,183,15.0,22.0,37,0.00,,---,0.25,VWS V14.00,2013-11-14 19:55:00,
2013-11-14 15:00:00,53.0,28.1,28.62,SSE,150,18.0,22.0,38,0.00,,---,0.25,VWS V14.00,2013-11-14 20:00:00,
2013-11-14 15:05:00,52.8,26.6,28.62,SSE,155,16.0,22.0,36,0.00,,---,0.25,VWS V14.00,2013-11-14 20:05:00,
2013-11-14 15:10:00,52.9,24.6,28.62,South,190,17.0,21.0,33,0.00,,---,0.25,VWS V14.00,2013-11-14 20:10:00,
2013-11-14 15:16:00,53.2,25.6,28.62,South,171,12.0,21.0,34,0.00,,---,0.25,VWS V14.00,2013-11-14 20:16:00,
2013-11-14 15:21:00,53.2,24.9,28.62,South,169,11.0,21.0,33,0.00,,---,0.25,VWS V14.00,2013-11-14 20:21:00,
2013-11-14 15:26:00,53.1,26.9,28.62,SSE,163,13.0,23.0,36,0.00,,---,0.25,VWS V14.00,2013-11-14 20:26:00,
2013-11-14 15:31:00,53.1,26.2,28.62,SSE,167,13.0,23.0,35,0.00,,---,0.25,VWS V14.00,2013-11-14 20:31:00,
2013-11-14 15:36:00,53.2,24.9,28.62,SSW,202,18.0,23.0,33,0.00,,---,0.25,VWS V14.00,2013-11-14 20:36:00,
2013-11-14 15:41:00,53.3,26.4,28.62,SSE,167,15.0,17.0,35,0.00,,---,0.25,VWS V14.00,2013-11-14 20:41:00,
2013-11-14 15:46:00,53.4,25.0,28.62,South,174,10.0,17.0,33,0.00,,---,0.25,VWS V14.00,2013-11-14 20:46:00,
2013-11-14 15:51:00,53.6,25.9,28.62,South,186,10.0,17.0,34,0.00,,---,0.25,VWS V14.00,2013-11-14 20:51:00,
2013-11-14 15:56:00,53.4,27.8,28.62,SSE,156,14.0,18.0,37,0.00,,---,0.25,VWS V14.00,2013-11-14 20:56:00,
2013-11-14 16:01:00,53.3,25.7,28.58,South,190,17.0,22.0,34,0.00,,---,0.25,VWS V14.00,2013-11-14 21:01:00,
2013-11-14 16:06:00,53.2,25.6,28.58,South,185,15.0,22.0,34,0.00,,---,0.25,VWS V14.00,2013-11-14 21:06:00,
2013-11-14 16:11:00,53.2,24.9,28.58,South,190,17.0,21.0,33,0.00,,---,0.25,VWS V14.00,2013-11-14 21:11:00,
2013-11-14 16:16:00,53.1,26.2,28.58,SSE,165,10.0,21.0,35,0.00,,---,0.25,VWS V14.00,2013-11-14 21:16:00,
2013-11-14 16:21:00,53.1,27.5,28.58,South,173,8.0,21.0,37,0.00,,---,0.26,VWS V14.00,2013-11-14 21:21:00,
2013-11-14 16:26:00,53.2,27.6,28.58,South,174,7.0,21.0,37,0.00,,---,0.26,VWS V14.00,2013-11-14 21:26:00,
2013-11-14 16:31:00,53.2,27.0,29.24,SSE,167,11.0,21.0,36,0.00,,---,0.26,VWS V14.00,2013-11-14 21:31:00,
2013-11-14 16:36:00,53.1,27.5,29.24,South,174,13.0,21.0,37,0.00,,---,0.26,VWS V14.00,2013-11-14 21:36:00,
2013-11-14 16:41:00,53.0,26.8,29.28,South,169,15.0,17.0,36,0.00,,---,0.26,VWS V14.00,2013-11-14 21:41:00,
2013-11-14 16:46:00,52.8,25.9,29.25,South,183,14.0,19.0,35,0.00,,---,0.26,VWS V14.00,2013-11-14 21:46:00,
2013-11-14 16:52:00,52.6,27.1,29.25,SSE,165,11.0,19.0,37,0.00,,---,0.26,VWS V14.00,2013-11-14 21:52:00,
2013-11-14 16:57:00,52.5,26.3,29.25,South,178,14.0,19.0,36,0.00,,---,0.26,VWS V14.00,2013-11-14 21:57:00,
2013-11-14 17:02:00,52.3,27.5,30.09,South,189,14.0,19.0,38,0.00,,---,0.26,VWS V14.00,2013-11-14 22:02:00,
2013-11-14 17:07:00,52.2,26.7,30.09,South,190,14.0,19.0,37,0.00,,---,0.26,VWS V14.00,2013-11-14 22:07:00,
2013-11-14 17:12:00,52.2,26.7,30.10,South,184,8.0,17.0,37,0.00,,---,0.26,VWS V14.00,2013-11-14 22:12:00,
2013-11-14 17:17:00,52.0,26.5,30.09,SSE,164,6.0,17.0,37,0.00,,---,0.26,VWS V14.00,2013-11-14 22:17:00,
2013-11-14 17:22:00,51.8,27.6,30.09,South,181,7.0,17.0,39,0.00,,---,0.26,VWS V14.00,2013-11-14 22:22:00,
2013-11-14 17:27:00,51.8,27.6,30.09,South,175,4.0,17.0,39,0.00,,---,0.26,VWS V14.00,2013-11-14 22:27:00,
2013-11-14 17:32:00,51.5,26.8,30.09,South,178,9.0,17.0,38,0.00,,---,0.26,VWS V14.00,2013-11-14 22:32:00,
2013-11-14 17:37:00,51.3,27.8,30.08,South,180,2.0,17.0,40,0.00,,---,0.26,VWS V14.00,2013-11-14 22:37:00,
2013-11-14 17:42:00,50.9,27.5,30.07,South,186,7.0,11.0,40,0.00,,---,0.26,VWS V14.00,2013-11-14 22:42:00,
2013-11-14 17:47:00,50.7,27.3,30.07,SSE,160,7.0,11.0,40,0.00,,---,0.26,VWS V14.00,2013-11-14 22:47:00,
2013-11-14 17:52:00,50.4,27.0,30.08,SSE,166,4.0,11.0,40,0.00,,---,0.26,VWS V14.00,2013-11-14 22:52:00,
2013-11-14 17:57:00,50.4,27.6,30.08,South,178,5.0,11.0,41,0.00,,---,0.26,VWS V14.00,2013-11-14 22:57:00,
2013-11-14 18:02:00,50.3,26.9,30.08,South,176,3.0,11.0,40,0.00,,---,0.26,VWS V14.00,2013-11-14 23:02:00,
2013-11-14 18:07:00,50.0,27.2,30.08,SSW,194,4.0,11.0,41,0.00,,---,0.26,VWS V14.00,2013-11-14 23:07:00,
2013-11-14 18:12:00,49.9,26.6,30.08,South,188,0.0,8.0,40,0.00,,---,0.26,VWS V14.00,2013-11-14 23:12:00,
2013-11-14 18:17:00,49.7,27.0,30.07,South,172,3.0,8.0,41,0.00,,---,0.26,VWS V14.00,2013-11-14 23:17:00,
2013-11-14 18:22:00,49.5,26.8,30.08,SW,215,3.0,8.0,41,0.00,,---,0.26,VWS V14.00,2013-11-14 23:22:00,
2013-11-14 18:27:00,49.4,26.7,30.07,SSE,168,4.0,9.0,41,0.00,,---,0.26,VWS V14.00,2013-11-14 23:27:00,
2013-11-14 18:32:00,49.4,26.1,30.08,SSW,200,9.0,11.0,40,0.00,,---,0.26,VWS V14.00,2013-11-14 23:32:00,
2013-11-14 18:37:00,49.4,26.7,30.08,SSE,153,4.0,11.0,41,0.00,,---,0.26,VWS V14.00,2013-11-14 23:37:00,
2013-11-14 18:43:00,49.3,25.4,30.08,SSW,195,1.0,6.0,39,0.00,,---,0.26,VWS V14.00,2013-11-14 23:43:00,
2013-11-14 18:48:00,49.2,25.9,30.08,SSE,151,2.0,9.0,40,0.00,,---,0.26,VWS V14.00,2013-11-14 23:48:00,
2013-11-14 18:53:00,48.9,25.7,30.08,SSE,151,2.0,9.0,40,0.00,,---,0.26,VWS V14.00,2013-11-14 23:53:00,
2013-11-14 18:58:00,48.7,26.1,30.08,SSE,151,0.0,9.0,41,0.00,,---,0.26,VWS V14.00,2013-11-14 23:58:00,
2013-11-14 19:03:00,48.9,26.2,30.08,South,180,4.0,10.0,41,0.00,,---,0.26,VWS V14.00,2013-11-15 00:03:00,
2013-11-14 19:08:00,49.2,25.9,30.08,SSW,192,5.0,10.0,40,0.00,,---,0.26,VWS V14.00,2013-11-15 00:08:00,
2013-11-14 19:13:00,49.2,25.9,30.07,South,172,4.0,7.0,40,0.00,,---,0.26,VWS V14.00,2013-11-15 00:13:00,
2013-11-14 19:18:00,49.3,26.6,30.08,SSW,194,3.0,9.0,41,0.00,,---,0.26,VWS V14.00,2013-11-15 00:18:00,
2013-11-14 19:23:00,49.2,25.9,30.07,South,185,0.0,9.0,40,0.00,,---,0.26,VWS V14.00,2013-11-15 00:23:00,
2013-11-14 19:28:00,49.4,25.5,30.07,South,180,4.0,11.0,39,0.00,,---,0.26,VWS V14.00,2013-11-15 00:28:00,
2013-11-14 19:33:00,49.3,26.0,30.07,SSE,167,6.0,11.0,40,0.00,,---,0.26,VWS V14.00,2013-11-15 00:33:00,
2013-11-14 19:38:00,49.1,25.8,30.07,SSE,160,3.0,11.0,40,0.00,,---,0.26,VWS V14.00,2013-11-15 00:38:00,
2013-11-14 19:43:00,48.9,26.2,30.07,South,180,5.0,8.0,41,0.00,,---,0.26,VWS V14.00,2013-11-15 00:43:00,
2013-11-14 19:48:00,48.7,26.6,30.07,South,171,4.0,8.0,42,0.00,,---,0.26,VWS V14.00,2013-11-15 00:48:00,
2013-11-14 19:53:00,48.4,26.4,30.07,South,181,10.0,12.0,42,0.00,,---,0.26,VWS V14.00,2013-11-15 00:53:00,
2013-11-14 19:58:00,48.5,25.9,30.07,South,176,2.0,12.0,41,0.00,,---,0.26,VWS V14.00,2013-11-15 00:58:00,
2013-11-14 20:03:00,48.4,25.2,30.07,SSE,165,5.0,12.0,40,0.00,,---,0.26,VWS V14.00,2013-11-15 01:03:00,
2013-11-14 20:08:00,48.3,26.3,30.07,SSE,155,3.0,3.0,42,0.00,,---,0.26,VWS V14.00,2013-11-15 01:08:00,
2013-11-14 20:13:00,48.1,26.7,30.06,SSE,162,3.0,5.0,43,0.00,,---,0.26,VWS V14.00,2013-11-15 01:13:00,
2013-11-14 20:18:00,48.1,27.2,30.06,SSW,206,3.0,9.0,44,0.00,,---,0.26,VWS V14.00,2013-11-15 01:18:00,
2013-11-14 20:24:00,47.7,26.3,30.06,South,184,3.0,9.0,43,0.00,,---,0.26,VWS V14.00,2013-11-15 01:24:00,
2013-11-14 20:29:00,47.6,25.7,30.06,SSE,148,1.0,9.0,42,0.00,,---,0.26,VWS V14.00,2013-11-15 01:29:00,
2013-11-14 20:34:00,47.5,25.6,30.07,SSE,148,0.0,9.0,42,0.00,,---,0.26,VWS V14.00,2013-11-15 01:34:00,
2013-11-14 20:39:00,47.4,25.5,30.07,South,180,0.0,1.0,42,0.00,,---,0.26,VWS V14.00,2013-11-15 01:39:00,
2013-11-14 20:44:00,47.3,25.4,30.07,South,180,0.0,3.0,42,0.00,,---,0.26,VWS V14.00,2013-11-15 01:44:00,
2013-11-14 20:49:00,47.2,25.3,30.07,South,180,0.0,3.0,42,0.00,,---,0.26,VWS V14.00,2013-11-15 01:49:00,
2013-11-14 20:54:00,47.1,25.2,30.07,SW,222,0.0,4.0,42,0.00,,---,0.26,VWS V14.00,2013-11-15 01:54:00,
2013-11-14 20:59:00,47.1,25.2,30.08,SW,222,0.0,4.0,42,0.00,,---,0.26,VWS V14.00,2013-11-15 01:59:00,
2013-11-14 21:04:00,47.4,25.5,30.08,SSW,202,0.0,4.0,42,0.00,,---,0.26,VWS V14.00,2013-11-15 02:04:00,
2013-11-14 21:09:00,47.4,24.9,30.07,SSW,200,0.0,0.0,41,0.00,,---,0.26,VWS V14.00,2013-11-15 02:09:00,
2013-11-14 21:14:00,47.3,25.4,30.07,SE,135,0.0,5.0,42,0.00,,---,0.26,VWS V14.00,2013-11-15 02:14:00,
2013-11-14 21:20:00,46.8,24.4,30.08,SW,223,0.0,5.0,41,0.00,,---,0.26,VWS V14.00,2013-11-15 02:20:00,
2013-11-14 21:25:00,46.4,24.0,30.08,SW,222,0.0,5.0,41,0.00,,---,0.26,VWS V14.00,2013-11-15 02:25:00,
2013-11-14 21:30:00,46.0,24.8,30.08,SW,222,0.0,5.0,43,0.00,,---,0.26,VWS V14.00,2013-11-15 02:30:00,
2013-11-14 21:36:00,45.6,23.9,30.08,SW,222,0.0,5.0,42,0.00,,---,0.26,VWS V14.00,2013-11-15 02:36:00,
2013-11-14 21:41:00,45.1,23.4,30.08,SW,222,0.0,0.0,42,0.00,,---,0.26,VWS V14.00,2013-11-15 02:41:00,
2013-11-14 21:46:00,44.9,23.8,30.08,SW,223,0.0,1.0,43,0.00,,---,0.26,VWS V14.00,2013-11-15 02:46:00,
2013-11-14 21:51:00,44.7,23.6,30.08,SW,223,0.0,1.0,43,0.00,,---,0.26,VWS V14.00,2013-11-15 02:51:00,
2013-11-14 21:57:00,44.7,23.6,30.08,SW,222,0.0,1.0,43,0.00,,---,0.26,VWS V14.00,2013-11-15 02:57:00,
2013-11-14 22:02:00,44.7,23.6,30.08,SW,223,0.0,1.0,43,0.00,,---,0.26,VWS V14.00,2013-11-15 03:02:00,
2013-11-14 22:07:00,44.5,23.4,30.08,SW,223,0.0,1.0,43,0.00,,---,0.26,VWS V14.00,2013-11-15 03:07:00,
2013-11-14 22:12:00,44.3,23.2,30.08,SW,223,0.0,0.0,43,0.00,,---,0.26,VWS V14.00,2013-11-15 03:12:00,
2013-11-14 22:17:00,44.1,24.1,30.08,SW,223,0.0,0.0,45,0.00,,---,0.26,VWS V14.00,2013-11-15 03:17:00,
2013-11-14 22:22:00,43.7,23.2,30.08,SW,223,0.0,1.0,44,0.00,,---,0.26,VWS V14.00,2013-11-15 03:22:00,
2013-11-14 22:27:00,43.6,23.1,30.07,SW,223,0.0,2.0,44,0.00,,---,0.26,VWS V14.00,2013-11-15 03:27:00,
2013-11-14 22:32:00,43.6,23.7,30.07,SW,223,0.0,2.0,45,0.00,,---,0.26,VWS V14.00,2013-11-15 03:32:00,
2013-11-14 22:37:00,43.6,24.2,30.07,SW,223,0.0,2.0,46,0.00,,---,0.26,VWS V14.00,2013-11-15 03:37:00,
2013-11-14 22:42:00,44.0,24.6,30.07,SW,223,2.0,2.0,46,0.00,,---,0.26,VWS V14.00,2013-11-15 03:42:00,
2013-11-14 22:47:00,44.4,24.9,30.07,SW,222,0.0,2.0,46,0.00,,---,0.26,VWS V14.00,2013-11-15 03:47:00,
2013-11-14 22:52:00,44.3,25.4,30.07,SW,223,0.0,2.0,47,0.00,,---,0.26,VWS V14.00,2013-11-15 03:52:00,
2013-11-14 22:57:00,43.9,25.0,30.07,SW,222,0.0,2.0,47,0.00,,---,0.26,VWS V14.00,2013-11-15 03:57:00,
2013-11-14 23:02:00,43.5,24.6,30.07,SW,222,0.0,2.0,47,0.00,,---,0.26,VWS V14.00,2013-11-15 04:02:00,
2013-11-14 23:07:00,43.6,24.7,30.07,SW,223,1.0,2.0,47,0.00,,---,0.26,VWS V14.00,2013-11-15 04:07:00,
2013-11-14 23:13:00,43.8,24.4,30.06,SW,223,0.0,2.0,46,0.00,,---,0.26,VWS V14.00,2013-11-15 04:13:00,
2013-11-14 23:18:00,43.7,24.3,30.06,SW,222,0.0,2.0,46,0.00,,---,0.26,VWS V14.00,2013-11-15 04:18:00,
2013-11-14 23:23:00,43.5,25.1,30.06,SW,223,0.0,2.0,48,0.00,,---,0.26,VWS V14.00,2013-11-15 04:23:00,
2013-11-14 23:28:00,43.2,24.9,30.06,SW,223,0.0,2.0,48,0.00,,---,0.26,VWS V14.00,2013-11-15 04:28:00,
2013-11-14 23:33:00,42.9,24.6,30.06,SW,223,0.0,2.0,48,0.00,,---,0.26,VWS V14.00,2013-11-15 04:33:00,
2013-11-14 23:38:00,42.8,25.0,30.06,SW,223,0.0,2.0,49,0.00,,---,0.26,VWS V14.00,2013-11-15 04:38:00,
2013-11-14 23:43:00,42.6,24.3,30.06,SW,222,0.0,0.0,48,0.00,,---,0.26,VWS V14.00,2013-11-15 04:43:00,
2013-11-14 23:48:00,42.5,24.7,30.06,SW,223,0.0,0.0,49,0.00,,---,0.26,VWS V14.00,2013-11-15 04:48:00,
2013-11-14 23:53:00,42.4,25.6,30.06,SW,222,0.0,0.0,51,0.00,,---,0.26,VWS V14.00,2013-11-15 04:53:00,
2013-11-14 23:58:00,42.2,25.4,30.06,SW,223,0.0,0.0,51,0.00,,---,0.26,VWS V14.00,2013-11-15 04:58:00,